カタログに戻る

SL-12 R/B(2)

運用中GEO
NORAD 19686·ROCKET BODY·🇷🇺 Russia

打ち上げ Dec 10, 1988 から Baikonur Cosmodrome

Loading…

TLE

最新Source: Space-Track

元期: Sep 14, 2026, 15:05 UTC

1 19686U 88108D   26257.62892126 -.00000266  00000-0  00000-0 0  9998
2 19686  11.0493 327.2573 0014939 212.1965 311.7308  1.01519035125355

AllMySatでSL-12 R/B(2)をリアルタイム追跡

Download on the App Store